Time,TemperatureF,DewpointF,PressureIn,WindDirection,WindDirectionDegrees,WindSpeedMPH,WindSpeedGustMPH,Humidity,HourlyPrecipIn,Conditions,Clouds,dailyrainin,SoftwareType,DateUTC
2013-02-28 00:00:00,38.1,35.1,29.88,WNW,293,3.0,3.0,89,0.00,,,0.00,Wunderground v.1.15,2013-02-28 05:00:00,
2013-02-28 00:01:00,38.1,35.1,29.88,WSW,248,0.0,3.0,89,0.00,,,0.00,Wunderground v.1.15,2013-02-28 05:01:00,
2013-02-28 00:04:00,38.0,35.3,29.88,WSW,248,2.0,3.0,90,0.00,,,0.00,Wunderground v.1.15,2013-02-28 05:04:00,
2013-02-28 00:09:00,38.0,34.8,29.87,WSW,248,1.0,3.0,88,0.00,,,0.00,Wunderground v.1.15,2013-02-28 05:09:00,
2013-02-28 00:15:00,38.0,35.3,29.88,WSW,251,0.0,1.0,90,0.00,,,0.00,Wunderground v.1.15,2013-02-28 05:15:00,
2013-02-28 00:20:00,37.8,35.1,29.88,WSW,251,1.0,1.0,90,0.00,,,0.00,Wunderground v.1.15,2013-02-28 05:20:00,
2013-02-28 00:25:00,37.7,35.0,29.88,WSW,251,0.0,1.0,90,0.00,,,0.00,Wunderground v.1.15,2013-02-28 05:25:00,
2013-02-28 00:30:00,37.6,34.7,29.88,WSW,255,0.0,0.0,89,0.00,,,0.00,Wunderground v.1.15,2013-02-28 05:30:00,
2013-02-28 00:35:00,37.6,34.9,29.88,WSW,255,1.0,1.0,90,0.00,,,0.00,Wunderground v.1.15,2013-02-28 05:35:00,
2013-02-28 00:41:00,37.4,35.0,29.88,WSW,255,0.0,1.0,91,0.00,,,0.00,Wunderground v.1.15,2013-02-28 05:41:00,
2013-02-28 00:46:00,37.3,34.9,29.88,NNE,18,0.0,1.0,91,0.00,,,0.00,Wunderground v.1.15,2013-02-28 05:46:00,
2013-02-28 00:51:00,37.2,35.1,29.88,NNE,18,1.0,1.0,92,0.00,,,0.00,Wunderground v.1.15,2013-02-28 05:51:00,
2013-02-28 00:56:00,37.2,35.1,29.88,NNE,18,1.0,1.0,92,0.00,,,0.00,Wunderground v.1.15,2013-02-28 05:56:00,
2013-02-28 01:02:00,37.1,35.0,29.88,NE,36,0.0,1.0,92,0.00,,,0.00,Wunderground v.1.15,2013-02-28 06:02:00,
2013-02-28 01:07:00,37.0,34.9,29.88,NE,36,0.0,1.0,92,0.00,,,0.00,Wunderground v.1.15,2013-02-28 06:07:00,
2013-02-28 01:12:00,36.9,34.8,29.88,North,5,0.0,2.0,92,0.00,,,0.00,Wunderground v.1.15,2013-02-28 06:12:00,
2013-02-28 01:17:00,36.9,34.8,29.88,NE,39,1.0,2.0,92,0.00,,,0.00,Wunderground v.1.15,2013-02-28 06:17:00,
2013-02-28 01:23:00,36.8,34.7,29.88,NNE,18,0.0,1.0,92,0.00,,,0.00,Wunderground v.1.15,2013-02-28 06:23:00,
2013-02-28 01:29:00,36.7,34.6,29.88,NE,44,0.0,1.0,92,0.00,,,0.00,Wunderground v.1.15,2013-02-28 06:29:00,
2013-02-28 01:34:00,36.6,34.5,29.88,NW,324,0.0,0.0,92,0.00,,,0.00,Wunderground v.1.15,2013-02-28 06:34:00,
2013-02-28 01:39:00,36.5,34.4,29.88,NW,324,0.0,0.0,92,0.00,,,0.00,Wunderground v.1.15,2013-02-28 06:39:00,
2013-02-28 01:45:00,36.4,34.3,29.88,NW,324,0.0,2.0,92,0.00,,,0.00,Wunderground v.1.15,2013-02-28 06:45:00,
2013-02-28 01:50:00,36.3,34.2,29.88,WSW,252,0.0,0.0,92,0.00,,,0.00,Wunderground v.1.15,2013-02-28 06:50:00,
2013-02-28 01:56:00,36.2,34.1,29.88,WSW,252,0.0,0.0,92,0.00,,,0.00,Wunderground v.1.15,2013-02-28 06:56:00,
2013-02-28 02:01:00,36.2,33.8,29.87,WSW,252,0.0,1.0,91,0.00,,,0.00,Wunderground v.1.15,2013-02-28 07:01:00,
2013-02-28 02:06:00,36.0,33.6,29.87,North,5,0.0,3.0,91,0.00,,,0.00,Wunderground v.1.15,2013-02-28 07:06:00,
2013-02-28 02:11:00,35.9,33.3,29.87,NNE,20,0.0,1.0,90,0.00,,,0.00,Wunderground v.1.15,2013-02-28 07:11:00,
2013-02-28 02:16:00,35.8,33.2,29.86,NNE,26,0.0,3.0,90,0.00,,,0.00,Wunderground v.1.15,2013-02-28 07:16:00,
2013-02-28 02:21:00,35.7,33.1,29.86,NE,34,1.0,1.0,90,0.00,,,0.00,Wunderground v.1.15,2013-02-28 07:21:00,
2013-02-28 02:26:00,35.7,32.8,29.86,NNE,26,0.0,1.0,89,0.00,,,0.00,Wunderground v.1.15,2013-02-28 07:26:00,
2013-02-28 02:31:00,35.6,32.7,29.86,North,355,2.0,2.0,89,0.00,,,0.00,Wunderground v.1.15,2013-02-28 07:31:00,
2013-02-28 02:36:00,35.5,32.3,29.86,NE,38,0.0,4.0,88,0.00,,,0.00,Wunderground v.1.15,2013-02-28 07:36:00,
2013-02-28 02:41:00,35.5,32.3,29.86,NE,40,0.0,2.0,88,0.00,,,0.00,Wunderground v.1.15,2013-02-28 07:41:00,
2013-02-28 02:46:00,35.5,32.3,29.86,NNE,18,1.0,3.0,88,0.00,,,0.00,Wunderground v.1.15,2013-02-28 07:46:00,
2013-02-28 02:51:00,35.4,32.2,29.86,NE,44,0.0,1.0,88,0.00,,,0.00,Wunderground v.1.15,2013-02-28 07:51:00,
2013-02-28 02:56:00,35.4,31.9,29.86,North,355,0.0,4.0,87,0.00,,,0.00,Wunderground v.1.15,2013-02-28 07:56:00,
2013-02-28 03:01:00,35.4,32.2,29.86,South,182,1.0,1.0,88,0.00,,,0.00,Wunderground v.1.15,2013-02-28 08:01:00,
2013-02-28 03:06:00,35.4,31.9,29.86,South,182,0.0,1.0,87,0.00,,,0.00,Wunderground v.1.15,2013-02-28 08:06:00,
2013-02-28 03:11:00,35.3,31.5,29.86,South,188,0.0,1.0,86,0.00,,,0.00,Wunderground v.1.15,2013-02-28 08:11:00,
2013-02-28 03:16:00,35.3,31.5,29.86,South,188,0.0,1.0,86,0.00,,,0.00,Wunderground v.1.15,2013-02-28 08:16:00,
2013-02-28 03:21:00,35.3,31.2,29.86,South,188,0.0,0.0,85,0.00,,,0.00,Wunderground v.1.15,2013-02-28 08:21:00,
2013-02-28 03:26:00,35.3,31.2,29.86,SW,219,1.0,2.0,85,0.00,,,0.00,Wunderground v.1.15,2013-02-28 08:26:00,
2013-02-28 03:31:00,35.4,31.3,29.85,SW,219,0.0,1.0,85,0.00,,,0.00,Wunderground v.1.15,2013-02-28 08:31:00,
2013-02-28 03:36:00,35.4,31.3,29.86,SW,219,0.0,2.0,85,0.00,,,0.00,Wunderground v.1.15,2013-02-28 08:36:00,
2013-02-28 03:41:00,35.4,31.0,29.85,SW,219,0.0,1.0,84,0.00,,,0.00,Wunderground v.1.15,2013-02-28 08:41:00,
2013-02-28 03:46:00,35.4,30.8,29.85,NNW,342,2.0,2.0,83,0.00,,,0.00,Wunderground v.1.15,2013-02-28 08:46:00,
2013-02-28 03:51:00,35.4,30.8,29.85,NNW,342,0.0,1.0,83,0.00,,,0.00,Wunderground v.1.15,2013-02-28 08:51:00,
2013-02-28 03:56:00,35.4,30.8,29.85,NNW,342,0.0,1.0,83,0.00,,,0.00,Wunderground v.1.15,2013-02-28 08:56:00,
2013-02-28 04:01:00,35.4,30.8,29.85,NNE,27,2.0,2.0,83,0.00,,,0.00,Wunderground v.1.15,2013-02-28 09:01:00,
2013-02-28 04:06:00,35.5,30.8,29.85,NNE,31,0.0,2.0,83,0.00,,,0.00,Wunderground v.1.15,2013-02-28 09:06:00,
2013-02-28 04:11:00,35.5,30.8,29.85,NNE,31,0.0,0.0,83,0.00,,,0.00,Wunderground v.1.15,2013-02-28 09:11:00,
2013-02-28 04:16:00,35.5,30.5,29.85,NNE,31,0.0,0.0,82,0.00,,,0.00,Wunderground v.1.15,2013-02-28 09:16:00,
2013-02-28 04:21:00,35.5,30.5,29.85,NNE,31,0.0,0.0,82,0.00,,,0.00,Wunderground v.1.15,2013-02-28 09:21:00,
2013-02-28 04:26:00,35.5,30.5,29.85,NNE,31,0.0,3.0,82,0.00,,,0.00,Wunderground v.1.15,2013-02-28 09:26:00,
2013-02-28 04:32:00,35.5,30.5,29.85,NNE,31,0.0,0.0,82,0.00,,,0.00,Wunderground v.1.15,2013-02-28 09:32:00,
2013-02-28 04:37:00,35.5,30.5,29.85,NNE,31,0.0,1.0,82,0.00,,,0.00,Wunderground v.1.15,2013-02-28 09:37:00,
2013-02-28 04:42:00,35.5,30.5,29.85,NNE,31,0.0,0.0,82,0.00,,,0.00,Wunderground v.1.15,2013-02-28 09:42:00,
2013-02-28 04:47:00,35.5,30.5,29.85,NNE,31,0.0,1.0,82,0.00,,,0.00,Wunderground v.1.15,2013-02-28 09:47:00,
2013-02-28 04:52:00,35.4,30.5,29.84,NNE,31,0.0,0.0,82,0.00,,,0.00,Wunderground v.1.15,2013-02-28 09:52:00,
2013-02-28 04:57:00,35.5,30.5,29.85,NNE,31,0.0,1.0,82,0.00,,,0.00,Wunderground v.1.15,2013-02-28 09:57:00,
2013-02-28 05:02:00,35.5,30.2,29.85,SW,225,1.0,2.0,81,0.00,,,0.00,Wunderground v.1.15,2013-02-28 10:02:00,
2013-02-28 05:07:00,35.5,30.2,29.85,SW,225,0.0,2.0,81,0.00,,,0.00,Wunderground v.1.15,2013-02-28 10:07:00,
2013-02-28 05:12:00,35.4,30.1,29.85,WSW,250,1.0,4.0,81,0.00,,,0.00,Wunderground v.1.15,2013-02-28 10:12:00,
2013-02-28 05:17:00,35.4,30.1,29.86,West,277,0.0,4.0,81,0.00,,,0.00,Wunderground v.1.15,2013-02-28 10:17:00,
2013-02-28 05:22:00,35.2,30.6,29.86,East,87,0.0,3.0,83,0.00,,,0.00,Wunderground v.1.15,2013-02-28 10:22:00,
2013-02-28 05:27:00,35.0,30.7,29.86,NNE,20,0.0,5.0,84,0.00,,,0.00,Wunderground v.1.15,2013-02-28 10:27:00,
2013-02-28 05:32:00,34.8,30.5,29.86,NE,39,0.0,4.0,84,0.00,,,0.00,Wunderground v.1.15,2013-02-28 10:32:00,
2013-02-28 05:37:00,34.5,30.2,29.86,NNE,15,0.0,4.0,84,0.00,,,0.00,Wunderground v.1.15,2013-02-28 10:37:00,
2013-02-28 05:42:00,34.2,29.9,29.86,North,5,0.0,1.0,84,0.00,,,0.00,Wunderground v.1.15,2013-02-28 10:42:00,
2013-02-28 05:47:00,34.2,29.9,29.87,NNE,22,0.0,3.0,84,0.00,,,0.00,Wunderground v.1.15,2013-02-28 10:47:00,
2013-02-28 05:52:00,34.0,29.4,29.86,NE,39,0.0,1.0,83,0.00,,,0.00,Wunderground v.1.15,2013-02-28 10:52:00,
2013-02-28 05:57:00,33.9,29.0,29.87,NW,311,1.0,4.0,82,0.00,,,0.00,Wunderground v.1.15,2013-02-28 10:57:00,
2013-02-28 06:02:00,33.8,28.9,29.87,NNE,15,1.0,1.0,82,0.00,,,0.00,Wunderground v.1.15,2013-02-28 11:02:00,
2013-02-28 06:07:00,33.8,28.6,29.87,East,80,0.0,5.0,81,0.00,,,0.00,Wunderground v.1.15,2013-02-28 11:07:00,
2013-02-28 06:12:00,33.8,28.6,29.87,NNW,329,1.0,10.0,81,0.00,,,0.00,Wunderground v.1.15,2013-02-28 11:12:00,
2013-02-28 06:17:00,33.8,28.6,29.87,NNE,23,0.0,10.0,81,0.00,,,0.00,Wunderground v.1.15,2013-02-28 11:17:00,
2013-02-28 06:23:00,33.8,28.3,29.87,NNE,23,0.0,1.0,80,0.00,,,0.00,Wunderground v.1.15,2013-02-28 11:23:00,
2013-02-28 06:28:00,33.8,28.0,29.87,North,5,0.0,2.0,79,0.00,,,0.00,Wunderground v.1.15,2013-02-28 11:28:00,
2013-02-28 06:33:00,33.8,28.0,29.87,NE,42,0.0,2.0,79,0.00,,,0.00,Wunderground v.1.15,2013-02-28 11:33:00,
2013-02-28 06:38:00,33.8,27.7,29.87,ENE,77,1.0,2.0,78,0.00,,,0.00,Wunderground v.1.15,2013-02-28 11:38:00,
2013-02-28 06:43:00,33.8,28.0,29.87,ENE,69,0.0,1.0,79,0.00,,,0.00,Wunderground v.1.15,2013-02-28 11:43:00,
2013-02-28 06:48:00,33.8,27.7,29.88,ENE,69,0.0,1.0,78,0.00,,,0.00,Wunderground v.1.15,2013-02-28 11:48:00,
2013-02-28 06:53:00,33.7,27.6,29.87,NE,34,0.0,3.0,78,0.00,,,0.00,Wunderground v.1.15,2013-02-28 11:53:00,
2013-02-28 06:58:00,33.7,27.6,29.88,SE,144,0.0,3.0,78,0.00,,,0.00,Wunderground v.1.15,2013-02-28 11:58:00,
2013-02-28 07:03:00,33.7,27.6,29.88,SE,144,0.0,2.0,78,0.00,,,0.00,Wunderground v.1.15,2013-02-28 12:03:00,
2013-02-28 07:08:00,33.6,27.5,29.88,SE,145,1.0,2.0,78,0.00,,,0.00,Wunderground v.1.15,2013-02-28 12:08:00,
2013-02-28 07:13:00,33.6,27.5,29.88,NNE,20,1.0,4.0,78,0.00,,,0.00,Wunderground v.1.15,2013-02-28 12:13:00,
2013-02-28 07:18:00,33.5,27.4,29.87,East,86,0.0,4.0,78,0.00,,,0.00,Wunderground v.1.15,2013-02-28 12:18:00,
2013-02-28 07:23:00,33.5,27.4,29.88,SSE,167,0.0,2.0,78,0.00,,,0.00,Wunderground v.1.15,2013-02-28 12:23:00,
2013-02-28 07:28:00,33.4,27.0,29.88,NE,55,0.0,2.0,77,0.00,,,0.00,Wunderground v.1.15,2013-02-28 12:28:00,
2013-02-28 07:33:00,33.4,27.0,29.88,NW,309,0.0,2.0,77,0.00,,,0.00,Wunderground v.1.15,2013-02-28 12:33:00,
2013-02-28 07:38:00,33.4,27.0,29.88,SW,223,0.0,2.0,77,0.00,,,0.00,Wunderground v.1.15,2013-02-28 12:38:00,
2013-02-28 07:43:00,33.5,26.7,29.88,WNW,291,0.0,4.0,76,0.00,,,0.00,Wunderground v.1.15,2013-02-28 12:43:00,
2013-02-28 07:48:00,33.7,26.6,29.88,WNW,291,0.0,4.0,75,0.00,,,0.00,Wunderground v.1.15,2013-02-28 12:48:00,
2013-02-28 07:53:00,33.8,26.7,29.88,WNW,291,1.0,1.0,75,0.00,,,0.00,Wunderground v.1.15,2013-02-28 12:53:00,
2013-02-28 07:58:00,34.0,26.6,29.89,WSW,251,1.0,1.0,74,0.00,,,0.00,Wunderground v.1.15,2013-02-28 12:58:00,
2013-02-28 08:04:00,34.1,26.3,29.89,ENE,69,0.0,6.0,73,0.00,,,0.00,Wunderground v.1.15,2013-02-28 13:04:00,
2013-02-28 08:09:00,34.2,26.4,29.89,WSW,244,0.0,6.0,73,0.00,,,0.00,Wunderground v.1.15,2013-02-28 13:09:00,
2013-02-28 08:14:00,34.2,26.8,29.89,SSW,212,1.0,2.0,74,0.00,,,0.00,Wunderground v.1.15,2013-02-28 13:14:00,
2013-02-28 08:19:00,34.2,26.4,29.89,SW,221,0.0,2.0,73,0.00,,,0.00,Wunderground v.1.15,2013-02-28 13:19:00,
2013-02-28 08:24:00,34.3,26.2,29.89,SW,221,0.0,2.0,72,0.00,,,0.00,Wunderground v.1.15,2013-02-28 13:24:00,
2013-02-28 08:29:00,34.2,26.1,29.90,WSW,249,0.0,3.0,72,0.00,,,0.00,Wunderground v.1.15,2013-02-28 13:29:00,
2013-02-28 08:34:00,34.3,26.5,29.90,WSW,249,0.0,2.0,73,0.00,,,0.00,Wunderground v.1.15,2013-02-28 13:34:00,
2013-02-28 08:39:00,34.2,26.1,29.91,SW,224,0.0,2.0,72,0.00,,,0.00,Wunderground v.1.15,2013-02-28 13:39:00,
2013-02-28 08:44:00,34.3,26.5,29.91,SW,222,0.0,2.0,73,0.00,,,0.00,Wunderground v.1.15,2013-02-28 13:44:00,
2013-02-28 08:49:00,34.4,27.0,29.91,SW,224,0.0,2.0,74,0.00,,,0.00,Wunderground v.1.15,2013-02-28 13:49:00,
2013-02-28 08:54:00,34.5,27.1,29.91,SSW,211,1.0,3.0,74,0.00,,,0.00,Wunderground v.1.15,2013-02-28 13:54:00,
2013-02-28 08:59:00,34.5,27.1,29.91,SSW,211,0.0,3.0,74,0.00,,,0.00,Wunderground v.1.15,2013-02-28 13:59:00,
2013-02-28 09:04:00,34.6,27.2,29.91,NW,304,0.0,2.0,74,0.00,,,0.00,Wunderground v.1.15,2013-02-28 14:04:00,
2013-02-28 09:09:00,34.6,27.2,29.90,NW,325,1.0,4.0,74,0.00,,,0.00,Wunderground v.1.15,2013-02-28 14:09:00,
2013-02-28 09:14:00,34.7,27.9,29.91,NW,316,0.0,3.0,76,0.00,,,0.00,Wunderground v.1.15,2013-02-28 14:14:00,
2013-02-28 09:19:00,34.7,27.6,29.92,WNW,283,2.0,4.0,75,0.00,,,0.00,Wunderground v.1.15,2013-02-28 14:19:00,
2013-02-28 09:24:00,34.7,27.9,29.91,NNW,345,1.0,2.0,76,0.00,,,0.00,Wunderground v.1.15,2013-02-28 14:24:00,
2013-02-28 09:29:00,34.7,27.9,29.92,SSE,159,1.0,2.0,76,0.00,,,0.00,Wunderground v.1.15,2013-02-28 14:29:00,
2013-02-28 09:34:00,34.7,28.2,29.92,SW,219,0.0,2.0,77,0.00,,,0.00,Wunderground v.1.15,2013-02-28 14:34:00,
2013-02-28 09:39:00,34.8,28.3,29.92,North,10,2.0,3.0,77,0.00,,,0.00,Wunderground v.1.15,2013-02-28 14:39:00,
2013-02-28 09:44:00,34.9,28.1,29.93,NE,54,0.0,5.0,76,0.00,,,0.00,Wunderground v.1.15,2013-02-28 14:44:00,
2013-02-28 09:49:00,35.0,28.5,29.92,NNE,12,0.0,5.0,77,0.00,,,0.00,Wunderground v.1.15,2013-02-28 14:49:00,
2013-02-28 09:54:00,35.0,28.5,29.92,WNW,303,0.0,2.0,77,0.00,,,0.00,Wunderground v.1.15,2013-02-28 14:54:00,
2013-02-28 10:00:00,35.1,28.6,29.92,WNW,283,0.0,2.0,77,0.00,,,0.00,Wunderground v.1.15,2013-02-28 15:00:00,
2013-02-28 10:05:00,35.1,28.6,29.92,WNW,283,1.0,3.0,77,0.00,,,0.00,Wunderground v.1.15,2013-02-28 15:05:00,
2013-02-28 10:10:00,35.2,28.4,29.92,WNW,283,1.0,3.0,76,0.00,,,0.00,Wunderground v.1.15,2013-02-28 15:10:00,
2013-02-28 10:15:00,35.3,28.8,29.92,SSW,213,1.0,9.0,77,0.00,,,0.00,Wunderground v.1.15,2013-02-28 15:15:00,
2013-02-28 10:20:00,35.2,28.4,29.92,SW,236,4.0,4.0,76,0.00,,,0.00,Wunderground v.1.15,2013-02-28 15:20:00,
2013-02-28 10:25:00,35.3,28.8,29.92,SW,227,2.0,4.0,77,0.00,,,0.00,Wunderground v.1.15,2013-02-28 15:25:00,
2013-02-28 10:30:00,35.3,28.8,29.92,North,350,0.0,3.0,77,0.00,,,0.00,Wunderground v.1.15,2013-02-28 15:30:00,
2013-02-28 10:35:00,35.4,28.9,29.92,ENE,61,0.0,3.0,77,0.00,,,0.00,Wunderground v.1.15,2013-02-28 15:35:00,
2013-02-28 10:40:00,35.5,28.7,29.92,WSW,238,0.0,1.0,76,0.00,,,0.00,Wunderground v.1.15,2013-02-28 15:40:00,
2013-02-28 10:46:00,35.7,28.9,29.92,NE,34,0.0,2.0,76,0.00,,,0.00,Wunderground v.1.15,2013-02-28 15:46:00,
2013-02-28 10:51:00,35.8,28.6,29.92,NE,44,0.0,1.0,75,0.00,,,0.00,Wunderground v.1.15,2013-02-28 15:51:00,
2013-02-28 10:56:00,35.9,28.4,29.92,NNE,30,0.0,5.0,74,0.00,,,0.00,Wunderground v.1.15,2013-02-28 15:56:00,
2013-02-28 11:01:00,36.0,28.8,29.92,North,5,6.0,6.0,75,0.00,,,0.00,Wunderground v.1.15,2013-02-28 16:01:00,
2013-02-28 11:06:00,36.2,29.0,29.92,NNW,344,0.0,6.0,75,0.00,,,0.00,Wunderground v.1.15,2013-02-28 16:06:00,
2013-02-28 11:11:00,36.4,28.9,29.92,SSW,199,0.0,1.0,74,0.00,,,0.00,Wunderground v.1.15,2013-02-28 16:11:00,
2013-02-28 11:16:00,36.7,28.5,29.92,SW,230,3.0,6.0,72,0.00,,,0.00,Wunderground v.1.15,2013-02-28 16:16:00,
2013-02-28 11:21:00,36.7,27.8,29.92,WSW,252,1.0,2.0,70,0.00,,,0.00,Wunderground v.1.15,2013-02-28 16:21:00,
2013-02-28 11:26:00,36.8,28.6,29.92,WSW,240,3.0,4.0,72,0.00,,,0.00,Wunderground v.1.15,2013-02-28 16:26:00,
2013-02-28 11:31:00,36.9,28.0,29.92,WSW,258,3.0,3.0,70,0.00,,,0.00,Wunderground v.1.15,2013-02-28 16:31:00,
2013-02-28 11:36:00,37.1,27.9,29.92,South,188,0.0,6.0,69,0.00,,,0.00,Wunderground v.1.15,2013-02-28 16:36:00,
2013-02-28 11:41:00,37.4,28.2,29.92,WNW,294,1.0,2.0,69,0.00,,,0.00,Wunderground v.1.15,2013-02-28 16:41:00,
2013-02-28 11:46:00,37.6,29.0,29.92,West,281,3.0,3.0,71,0.00,,,0.00,Wunderground v.1.15,2013-02-28 16:46:00,
2013-02-28 11:51:00,37.8,28.5,29.92,WSW,254,1.0,3.0,69,0.00,,,0.00,Wunderground v.1.15,2013-02-28 16:51:00,
2013-02-28 11:56:00,37.8,28.2,29.92,North,350,2.0,3.0,68,0.00,,,0.00,Wunderground v.1.15,2013-02-28 16:56:00,
2013-02-28 12:01:00,37.8,28.5,29.93,WSW,250,1.0,2.0,69,0.00,,,0.00,Wunderground v.1.15,2013-02-28 17:01:00,
2013-02-28 12:06:00,38.0,30.4,29.93,NNE,16,4.0,5.0,74,0.00,,,0.00,Wunderground v.1.15,2013-02-28 17:06:00,
2013-02-28 12:11:00,38.3,30.7,29.93,NNE,13,5.0,12.0,74,0.00,,,0.00,Wunderground v.1.15,2013-02-28 17:11:00,
2013-02-28 12:16:00,38.5,31.6,29.94,WNW,296,2.0,12.0,76,0.00,,,0.00,Wunderground v.1.15,2013-02-28 17:16:00,
2013-02-28 12:22:00,38.2,31.0,29.94,NNE,25,11.0,11.0,75,0.00,,,0.00,Wunderground v.1.15,2013-02-28 17:22:00,
2013-02-28 12:27:00,37.8,30.9,29.94,NE,48,3.0,11.0,76,0.00,,,0.00,Wunderground v.1.15,2013-02-28 17:27:00,
2013-02-28 12:32:00,37.2,30.7,29.94,NNE,27,3.0,7.0,77,0.00,,,0.00,Wunderground v.1.15,2013-02-28 17:32:00,
2013-02-28 12:37:00,36.6,30.4,29.94,NE,42,2.0,12.0,78,0.00,,,0.00,Wunderground v.1.15,2013-02-28 17:37:00,
2013-02-28 12:42:00,36.4,30.8,29.94,NNW,331,3.0,5.0,80,0.00,,,0.00,Wunderground v.1.15,2013-02-28 17:42:00,
2013-02-28 12:47:00,36.5,30.6,29.94,NE,51,1.0,13.0,79,0.00,,,0.00,Wunderground v.1.15,2013-02-28 17:47:00,
2013-02-28 12:52:00,36.6,30.7,29.94,NNE,33,7.0,7.0,79,0.00,,,0.00,Wunderground v.1.15,2013-02-28 17:52:00,
2013-02-28 12:57:00,36.7,30.8,29.94,NNW,342,1.0,9.0,79,0.00,,,0.00,Wunderground v.1.15,2013-02-28 17:57:00,
2013-02-28 13:02:00,36.5,30.3,29.94,WNW,289,0.0,12.0,78,0.00,,,0.00,Wunderground v.1.15,2013-02-28 18:02:00,
2013-02-28 13:07:00,36.1,29.6,29.95,ENE,65,2.0,13.0,77,0.00,,,0.00,Wunderground v.1.15,2013-02-28 18:07:00,
2013-02-28 13:12:00,36.0,29.8,29.95,NW,313,1.0,8.0,78,0.00,,,0.00,Wunderground v.1.15,2013-02-28 18:12:00,
2013-02-28 13:17:00,36.1,30.2,29.94,West,271,0.0,8.0,79,0.00,,,0.00,Wunderground v.1.15,2013-02-28 18:17:00,
2013-02-28 13:22:00,36.0,29.5,29.94,WSW,243,0.0,5.0,77,0.00,,,0.00,Wunderground v.1.15,2013-02-28 18:22:00,
2013-02-28 13:27:00,36.0,29.5,29.94,WSW,242,3.0,5.0,77,0.00,,,0.00,Wunderground v.1.15,2013-02-28 18:27:00,
2013-02-28 13:32:00,36.2,29.4,29.94,SW,235,0.0,3.0,76,0.00,,,0.00,Wunderground v.1.15,2013-02-28 18:32:00,
2013-02-28 13:37:00,36.2,29.0,29.94,NE,53,1.0,9.0,75,0.00,,,0.00,Wunderground v.1.15,2013-02-28 18:37:00,
2013-02-28 13:42:00,36.2,29.0,29.94,North,355,1.0,2.0,75,0.00,,,0.00,Wunderground v.1.15,2013-02-28 18:42:00,
2013-02-28 13:47:00,36.3,29.1,29.94,NNE,26,0.0,4.0,75,0.00,,,0.00,Wunderground v.1.15,2013-02-28 18:47:00,
2013-02-28 13:52:00,36.6,29.1,29.94,NNE,15,0.0,4.0,74,0.00,,,0.00,Wunderground v.1.15,2013-02-28 18:52:00,
2013-02-28 13:57:00,37.0,29.5,29.94,NW,316,2.0,4.0,74,0.00,,,0.00,Wunderground v.1.15,2013-02-28 18:57:00,
2013-02-28 14:02:00,37.2,29.3,29.94,North,11,1.0,6.0,73,0.00,,,0.00,Wunderground v.1.15,2013-02-28 19:02:00,
2013-02-28 14:07:00,37.3,29.1,29.94,NNE,17,4.0,10.0,72,0.00,,,0.00,Wunderground v.1.15,2013-02-28 19:07:00,
2013-02-28 14:12:00,37.6,29.4,29.94,SW,232,1.0,7.0,72,0.00,,,0.00,Wunderground v.1.15,2013-02-28 19:12:00,
2013-02-28 14:17:00,38.4,29.5,29.94,NNW,348,8.0,10.0,70,0.00,,,0.00,Wunderground v.1.15,2013-02-28 19:17:00,
2013-02-28 14:22:00,39.0,30.0,29.94,NNW,345,0.0,3.0,70,0.00,,,0.00,Wunderground v.1.15,2013-02-28 19:22:00,
2013-02-28 14:27:00,39.6,29.9,29.94,NNW,344,4.0,5.0,68,0.00,,,0.00,Wunderground v.1.15,2013-02-28 19:27:00,
2013-02-28 14:32:00,39.6,29.2,29.94,WNW,288,2.0,5.0,66,0.00,,,0.00,Wunderground v.1.15,2013-02-28 19:32:00,
2013-02-28 14:37:00,39.3,28.9,29.94,ENE,61,2.0,5.0,66,0.00,,,0.00,Wunderground v.1.15,2013-02-28 19:37:00,
2013-02-28 14:42:00,39.3,28.5,29.94,NE,40,2.0,9.0,65,0.00,,,0.00,Wunderground v.1.15,2013-02-28 19:42:00,
2013-02-28 14:47:00,39.4,29.0,29.94,NNE,19,0.0,9.0,66,0.00,,,0.00,Wunderground v.1.15,2013-02-28 19:47:00,
2013-02-28 14:52:00,39.9,28.7,29.94,SW,233,2.0,4.0,64,0.00,,,0.00,Wunderground v.1.15,2013-02-28 19:52:00,
2013-02-28 14:57:00,40.0,28.4,29.94,WSW,244,2.0,6.0,63,0.00,,,0.00,Wunderground v.1.15,2013-02-28 19:57:00,
2013-02-28 15:02:00,40.2,28.2,29.94,WNW,294,1.0,2.0,62,0.00,,,0.00,Wunderground v.1.15,2013-02-28 20:02:00,
2013-02-28 15:07:00,40.0,28.4,29.94,NE,36,1.0,8.0,63,0.00,,,0.00,Wunderground v.1.15,2013-02-28 20:07:00,
2013-02-28 15:12:00,39.7,28.9,29.94,West,265,0.0,13.0,65,0.00,,,0.00,Wunderground v.1.15,2013-02-28 20:12:00,
2013-02-28 15:18:00,39.5,28.7,29.94,NNE,22,2.0,13.0,65,0.00,,,0.00,Wunderground v.1.15,2013-02-28 20:18:00,
2013-02-28 15:22:00,39.3,28.5,29.95,NNW,348,5.0,10.0,65,0.00,,,0.00,Wunderground v.1.15,2013-02-28 20:22:00,
2013-02-28 15:28:00,39.0,28.2,29.95,NE,47,2.0,10.0,65,0.00,,,0.00,Wunderground v.1.15,2013-02-28 20:28:00,
2013-02-28 15:33:00,38.9,28.5,29.95,NW,325,0.0,9.0,66,0.00,,,0.00,Wunderground v.1.15,2013-02-28 20:33:00,
2013-02-28 15:38:00,39.0,29.0,29.95,West,277,1.0,9.0,67,0.00,,,0.00,Wunderground v.1.15,2013-02-28 20:38:00,
2013-02-28 15:43:00,39.4,28.2,29.95,SSW,203,1.0,7.0,64,0.00,,,0.00,Wunderground v.1.15,2013-02-28 20:43:00,
2013-02-28 15:48:00,39.6,28.8,29.95,North,5,2.0,7.0,65,0.00,,,0.00,Wunderground v.1.15,2013-02-28 20:48:00,
2013-02-28 15:53:00,39.8,29.4,29.96,ENE,57,4.0,4.0,66,0.00,,,0.00,Wunderground v.1.15,2013-02-28 20:53:00,
2013-02-28 15:58:00,39.8,29.0,29.95,NE,34,3.0,5.0,65,0.00,,,0.00,Wunderground v.1.15,2013-02-28 20:58:00,
2013-02-28 16:03:00,39.6,29.2,29.96,NW,317,0.0,3.0,66,0.00,,,0.00,Wunderground v.1.15,2013-02-28 21:03:00,
2013-02-28 16:08:00,39.3,28.5,29.97,NNW,334,1.0,10.0,65,0.00,,,0.00,Wunderground v.1.15,2013-02-28 21:08:00,
2013-02-28 16:13:00,38.9,28.1,29.96,NE,42,3.0,10.0,65,0.00,,,0.00,Wunderground v.1.15,2013-02-28 21:13:00,
2013-02-28 16:18:00,38.7,28.3,29.96,NNE,20,7.0,10.0,66,0.00,,,0.00,Wunderground v.1.15,2013-02-28 21:18:00,
2013-02-28 16:23:00,38.5,28.1,29.96,WSW,243,1.0,4.0,66,0.00,,,0.00,Wunderground v.1.15,2013-02-28 21:23:00,
2013-02-28 16:28:00,38.3,28.3,29.97,North,355,2.0,5.0,67,0.00,,,0.00,Wunderground v.1.15,2013-02-28 21:28:00,
2013-02-28 16:33:00,38.0,28.0,29.97,NNE,27,3.0,5.0,67,0.00,,,0.00,Wunderground v.1.15,2013-02-28 21:33:00,
2013-02-28 16:38:00,37.8,28.2,29.97,SW,225,2.0,6.0,68,0.00,,,0.00,Wunderground v.1.15,2013-02-28 21:38:00,
2013-02-28 16:43:00,37.6,27.6,29.97,NE,44,0.0,7.0,67,0.00,,,0.00,Wunderground v.1.15,2013-02-28 21:43:00,
2013-02-28 16:48:00,37.3,27.3,29.98,SE,128,0.0,9.0,67,0.00,,,0.00,Wunderground v.1.15,2013-02-28 21:48:00,
2013-02-28 16:53:00,37.0,27.4,29.98,North,5,1.0,7.0,68,0.00,,,0.00,Wunderground v.1.15,2013-02-28 21:53:00,
2013-02-28 16:58:00,36.8,27.2,29.98,NNW,331,1.0,7.0,68,0.00,,,0.00,Wunderground v.1.15,2013-02-28 21:58:00,
2013-02-28 17:03:00,36.6,27.4,29.98,North,11,10.0,10.0,69,0.00,,,0.00,Wunderground v.1.15,2013-02-28 22:03:00,
2013-02-28 17:08:00,36.4,27.5,29.99,NE,36,5.0,12.0,70,0.00,,,0.00,Wunderground v.1.15,2013-02-28 22:08:00,
2013-02-28 17:13:00,36.3,27.4,29.99,NE,55,1.0,3.0,70,0.00,,,0.00,Wunderground v.1.15,2013-02-28 22:13:00,
2013-02-28 17:18:00,36.2,27.4,30.00,NNW,336,2.0,5.0,70,0.00,,,0.00,Wunderground v.1.15,2013-02-28 22:18:00,
2013-02-28 17:23:00,36.0,27.2,30.00,NE,36,1.0,9.0,70,0.00,,,0.00,Wunderground v.1.15,2013-02-28 22:23:00,
2013-02-28 17:28:00,35.9,27.4,30.00,West,280,1.0,9.0,71,0.00,,,0.00,Wunderground v.1.15,2013-02-28 22:28:00,
2013-02-28 17:33:00,35.8,27.3,30.00,NNE,16,5.0,5.0,71,0.00,,,0.00,Wunderground v.1.15,2013-02-28 22:33:00,
2013-02-28 17:38:00,35.5,27.4,30.00,NNW,336,1.0,5.0,72,0.00,,,0.00,Wunderground v.1.15,2013-02-28 22:38:00,
2013-02-28 17:43:00,35.1,26.6,30.01,WNW,284,0.0,3.0,71,0.00,,,0.00,Wunderground v.1.15,2013-02-28 22:43:00,
2013-02-28 17:48:00,34.9,26.8,30.01,NW,320,2.0,3.0,72,0.00,,,0.00,Wunderground v.1.15,2013-02-28 22:48:00,
2013-02-28 17:53:00,34.7,26.9,30.01,NE,36,1.0,6.0,73,0.00,,,0.00,Wunderground v.1.15,2013-02-28 22:53:00,
2013-02-28 17:58:00,34.6,26.8,30.01,West,280,0.0,6.0,73,0.00,,,0.00,Wunderground v.1.15,2013-02-28 22:58:00,
2013-02-28 18:03:00,34.4,27.0,30.01,West,280,0.0,1.0,74,0.00,,,0.00,Wunderground v.1.15,2013-02-28 23:03:00,
2013-02-28 18:08:00,34.2,26.4,30.02,WSW,238,2.0,2.0,73,0.00,,,0.00,Wunderground v.1.15,2013-02-28 23:08:00,
2013-02-28 18:13:00,34.2,26.8,30.02,NE,36,3.0,5.0,74,0.00,,,0.00,Wunderground v.1.15,2013-02-28 23:13:00,
2013-02-28 18:19:00,34.0,26.6,30.02,NNW,327,0.0,5.0,74,0.00,,,0.00,Wunderground v.1.15,2013-02-28 23:19:00,
2013-02-28 18:23:00,33.9,26.8,30.02,WNW,288,0.0,3.0,75,0.00,,,0.00,Wunderground v.1.15,2013-02-28 23:23:00,
2013-02-28 18:28:00,33.7,26.3,30.03,North,360,5.0,9.0,74,0.00,,,0.00,Wunderground v.1.15,2013-02-28 23:28:00,
2013-02-28 18:34:00,33.5,26.1,30.02,NNW,348,6.0,9.0,74,0.00,,,0.00,Wunderground v.1.15,2013-02-28 23:34:00,
2013-02-28 18:38:00,33.4,26.0,30.03,NNE,27,0.0,9.0,74,0.00,,,0.00,Wunderground v.1.15,2013-02-28 23:38:00,
2013-02-28 18:44:00,33.3,25.9,30.03,NE,42,0.0,4.0,74,0.00,,,0.00,Wunderground v.1.15,2013-02-28 23:44:00,
2013-02-28 18:49:00,33.3,26.2,30.04,NE,53,1.0,4.0,75,0.00,,,0.00,Wunderground v.1.15,2013-02-28 23:49:00,
2013-02-28 18:54:00,33.2,26.1,30.04,NNW,333,1.0,5.0,75,0.00,,,0.00,Wunderground v.1.15,2013-02-28 23:54:00,
2013-02-28 18:59:00,33.2,26.1,30.04,North,11,1.0,7.0,75,0.00,,,0.00,Wunderground v.1.15,2013-02-28 23:59:00,
2013-02-28 19:04:00,33.2,26.5,30.04,West,266,1.0,2.0,76,0.00,,,0.00,Wunderground v.1.15,2013-03-01 00:04:00,
2013-02-28 19:09:00,33.1,25.7,30.04,NW,304,1.0,2.0,74,0.00,,,0.00,Wunderground v.1.15,2013-03-01 00:09:00,
2013-02-28 19:14:00,33.1,26.0,30.04,WNW,302,0.0,1.0,75,0.00,,,0.00,Wunderground v.1.15,2013-03-01 00:14:00,
2013-02-28 19:19:00,33.1,26.0,30.04,WSW,258,0.0,4.0,75,0.00,,,0.00,Wunderground v.1.15,2013-03-01 00:19:00,
2013-02-28 19:24:00,33.1,26.0,30.04,West,274,0.0,4.0,75,0.00,,,0.00,Wunderground v.1.15,2013-03-01 00:24:00,
2013-02-28 19:29:00,33.1,25.7,30.04,WSW,245,1.0,4.0,74,0.00,,,0.00,Wunderground v.1.15,2013-03-01 00:29:00,
2013-02-28 19:34:00,33.0,25.9,30.04,WSW,250,0.0,4.0,75,0.00,,,0.00,Wunderground v.1.15,2013-03-01 00:34:00,
2013-02-28 19:39:00,32.9,25.8,30.04,SW,231,1.0,4.0,75,0.00,,,0.00,Wunderground v.1.15,2013-03-01 00:39:00,
2013-02-28 19:44:00,32.9,25.8,30.04,SW,231,0.0,2.0,75,0.00,,,0.00,Wunderground v.1.15,2013-03-01 00:44:00,
2013-02-28 19:49:00,32.9,25.8,30.04,WSW,246,2.0,3.0,75,0.00,,,0.00,Wunderground v.1.15,2013-03-01 00:49:00,
2013-02-28 19:54:00,32.9,25.8,30.03,WSW,244,0.0,5.0,75,0.00,,,0.00,Wunderground v.1.15,2013-03-01 00:54:00,
2013-02-28 19:59:00,32.8,25.7,30.03,SW,232,2.0,5.0,75,0.00,,,0.00,Wunderground v.1.15,2013-03-01 00:59:00,
2013-02-28 20:04:00,32.8,25.7,30.03,SW,231,2.0,3.0,75,0.00,,,0.00,Wunderground v.1.15,2013-03-01 01:04:00,
2013-02-28 20:09:00,32.8,25.7,30.03,WSW,251,1.0,3.0,75,0.00,,,0.00,Wunderground v.1.15,2013-03-01 01:09:00,
2013-02-28 20:14:00,32.8,26.1,30.03,WNW,299,3.0,3.0,76,0.00,,,0.00,Wunderground v.1.15,2013-03-01 01:14:00,
2013-02-28 20:19:00,32.8,26.1,30.03,SW,232,1.0,3.0,76,0.00,,,0.00,Wunderground v.1.15,2013-03-01 01:19:00,
2013-02-28 20:24:00,32.7,25.6,30.03,WSW,251,0.0,5.0,75,0.00,,,0.00,Wunderground v.1.15,2013-03-01 01:24:00,
2013-02-28 20:29:00,32.7,25.6,30.03,NNE,14,0.0,6.0,75,0.00,,,0.00,Wunderground v.1.15,2013-03-01 01:29:00,
2013-02-28 20:34:00,32.6,25.6,30.03,West,263,1.0,4.0,75,0.00,,,0.00,Wunderground v.1.15,2013-03-01 01:34:00,
2013-02-28 20:39:00,32.6,25.6,30.03,SW,235,0.0,6.0,75,0.00,,,0.00,Wunderground v.1.15,2013-03-01 01:39:00,
2013-02-28 20:44:00,32.7,26.0,30.03,SW,224,0.0,3.0,76,0.00,,,0.00,Wunderground v.1.15,2013-03-01 01:44:00,
2013-02-28 20:49:00,32.7,26.0,30.03,SW,226,0.0,3.0,76,0.00,,,0.00,Wunderground v.1.15,2013-03-01 01:49:00,
2013-02-28 20:54:00,32.7,25.6,30.03,SW,215,3.0,3.0,75,0.00,,,0.00,Wunderground v.1.15,2013-03-01 01:54:00,
2013-02-28 20:59:00,32.8,26.1,30.04,NE,35,0.0,3.0,76,0.00,,,0.00,Wunderground v.1.15,2013-03-01 01:59:00,
2013-02-28 21:04:00,32.8,26.1,30.04,NE,36,2.0,2.0,76,0.00,,,0.00,Wunderground v.1.15,2013-03-01 02:04:00,
2013-02-28 21:09:00,32.7,26.3,30.04,NE,35,0.0,2.0,77,0.00,,,0.00,Wunderground v.1.15,2013-03-01 02:09:00,
2013-02-28 21:14:00,32.7,26.3,30.04,SSE,160,0.0,2.0,77,0.00,,,0.00,Wunderground v.1.15,2013-03-01 02:14:00,
2013-02-28 21:19:00,32.6,26.2,30.05,NNE,32,0.0,2.0,77,0.00,,,0.00,Wunderground v.1.15,2013-03-01 02:19:00,
2013-02-28 21:24:00,32.5,26.1,30.04,NNE,19,0.0,3.0,77,0.00,,,0.00,Wunderground v.1.15,2013-03-01 02:24:00,
2013-02-28 21:29:00,32.5,26.4,30.03,NE,49,1.0,6.0,78,0.00,,,0.00,Wunderground v.1.15,2013-03-01 02:29:00,
2013-02-28 21:34:00,32.4,26.3,30.03,NNW,342,0.0,3.0,78,0.00,,,0.00,Wunderground v.1.15,2013-03-01 02:34:00,
2013-02-28 21:39:00,32.2,26.4,30.03,North,360,1.0,4.0,79,0.00,,,0.00,Wunderground v.1.15,2013-03-01 02:39:00,
2013-02-28 21:44:00,32.1,26.3,30.03,North,355,0.0,2.0,79,0.00,,,0.00,Wunderground v.1.15,2013-03-01 02:44:00,
2013-02-28 21:49:00,32.1,26.3,30.03,NW,309,0.0,3.0,79,0.00,,,0.00,Wunderground v.1.15,2013-03-01 02:49:00,
2013-02-28 21:54:00,32.0,26.2,30.03,NNE,26,0.0,5.0,79,0.00,,,0.00,Wunderground v.1.15,2013-03-01 02:54:00,
2013-02-28 21:59:00,32.0,26.5,30.03,South,172,0.0,6.0,80,0.00,,,0.00,Wunderground v.1.15,2013-03-01 02:59:00,
2013-02-28 22:04:00,32.0,26.5,30.03,NE,38,0.0,3.0,80,0.00,,,0.00,Wunderground v.1.15,2013-03-01 03:04:00,
2013-02-28 22:09:00,32.0,26.5,30.04,NE,50,0.0,3.0,80,0.00,,,0.00,Wunderground v.1.15,2013-03-01 03:09:00,
2013-02-28 22:14:00,32.0,26.5,30.04,North,355,0.0,3.0,80,0.00,,,0.00,Wunderground v.1.15,2013-03-01 03:14:00,
2013-02-28 22:19:00,32.0,26.5,30.04,West,267,0.0,4.0,80,0.00,,,0.00,Wunderground v.1.15,2013-03-01 03:19:00,
2013-02-28 22:24:00,31.9,26.7,30.05,West,267,0.0,1.0,81,0.00,,,0.00,Wunderground v.1.15,2013-03-01 03:24:00,
2013-02-28 22:29:00,31.9,26.7,30.05,NE,46,1.0,7.0,81,0.00,,,0.00,Wunderground v.1.15,2013-03-01 03:29:00,
2013-02-28 22:34:00,31.9,26.7,30.04,ESE,105,0.0,1.0,81,0.00,,,0.00,Wunderground v.1.15,2013-03-01 03:34:00,
2013-02-28 22:39:00,31.9,26.7,30.05,NE,39,2.0,6.0,81,0.00,,,0.00,Wunderground v.1.15,2013-03-01 03:39:00,
2013-02-28 22:44:00,31.8,26.6,30.04,NE,51,1.0,6.0,81,0.00,,,0.00,Wunderground v.1.15,2013-03-01 03:44:00,
2013-02-28 22:49:00,31.8,26.9,30.05,NE,51,0.0,6.0,82,0.00,,,0.00,Wunderground v.1.15,2013-03-01 03:49:00,
2013-02-28 22:54:00,31.7,26.8,30.04,North,355,1.0,2.0,82,0.00,,,0.00,Wunderground v.1.15,2013-03-01 03:54:00,
2013-02-28 22:59:00,31.7,26.8,30.04,North,360,0.0,3.0,82,0.00,,,0.00,Wunderground v.1.15,2013-03-01 03:59:00,
2013-02-28 23:04:00,31.7,26.8,30.04,NE,48,0.0,4.0,82,0.00,,,0.00,Wunderground v.1.15,2013-03-01 04:04:00,
2013-02-28 23:10:00,31.7,26.8,30.04,WSW,257,1.0,4.0,82,0.00,,,0.00,Wunderground v.1.15,2013-03-01 04:10:00,
2013-02-28 23:15:00,31.7,27.1,30.03,NNE,14,0.0,4.0,83,0.00,,,0.00,Wunderground v.1.15,2013-03-01 04:15:00,
2013-02-28 23:20:00,31.6,27.0,30.04,NE,42,2.0,10.0,83,0.00,,,0.00,Wunderground v.1.15,2013-03-01 04:20:00,
2013-02-28 23:25:00,31.7,26.8,30.04,NW,309,1.0,5.0,82,0.00,,,0.00,Wunderground v.1.15,2013-03-01 04:25:00,
2013-02-28 23:30:00,31.6,26.7,30.04,NW,306,0.0,5.0,82,0.00,,,0.00,Wunderground v.1.15,2013-03-01 04:30:00,
2013-02-28 23:35:00,31.6,27.0,30.04,WNW,290,0.0,4.0,83,0.00,,,0.00,Wunderground v.1.15,2013-03-01 04:35:00,
2013-02-28 23:40:00,31.5,26.9,30.05,NNW,336,0.0,6.0,83,0.00,,,0.00,Wunderground v.1.15,2013-03-01 04:40:00,
2013-02-28 23:45:00,31.5,26.9,30.05,SW,226,2.0,3.0,83,0.00,,,0.00,Wunderground v.1.15,2013-03-01 04:45:00,
2013-02-28 23:50:00,31.5,26.9,30.05,NNW,328,0.0,9.0,83,0.00,,,0.00,Wunderground v.1.15,2013-03-01 04:50:00,
2013-02-28 23:55:00,31.5,26.9,30.05,SW,215,0.0,4.0,83,0.00,,,0.00,Wunderground v.1.15,2013-03-01 04:55:00,